Weather History for Valdosta Regional, GA

Change the Weather History Date:

Friday, December 7, 2012

  Actual Average Record
Temperature  
Mean Temperature 63 °F 55 °F  
Max Temperature 69 °F 66 °F 83 °F (2013)
Min Temperature 57 °F 43 °F 26 °F (2010)
Degree Days  
Heating Degree Days 2 11  
Month to date heating degree days 5 72  
Since 1 July heating degree days 218 303  
Growing Degree Days 12 (Base 50)    
Moisture  
Dew Point 56 °F    
Average Humidity 79    
Maximum Humidity 90    
Minimum Humidity 68    
Precipitation  
Precipitation 0.00 in 0.11 in 0.60 in (1996)
Month to date precipitation 0.00 0.77  
Year to date precipitation 40.02 48.20  
Sea Level Pressure  
Sea Level Pressure 30.05 in    
Wind  
Wind Speed 4 mph (East)    
Max Wind Speed 9 mph    
Max Gust Speed 13 mph    
Visibility 7 miles    
Events      
T = Trace of Precipitation, MM = Missing Value Source: NWS Daily Summary

Daily Weather History Graph

Daily Weather History Graph

Search for Another Location

Airport:

Trip Planner

Search our weather history database for the weather conditions in past years. The results will help you decide how hot, cold, wet, or windy it might be!

Date:

Astronomy

Dec. 07, 2012 Rise Set
Actual Time 7:18 AM EST 5:31 PM EST
Civil Twilight 6:51 AM EST 5:57 PM EST
Nautical Twilight 6:21 AM EST 6:27 PM EST
Astronomical Twilight 5:52 AM EST 6:57 PM EST
Moon 12:58 AM EST (12/7) 1:07 PM EST (12/7)
Length of Visible Light 11h 06m
Length of Day
10h 13m
Last Quarter, 39% of the Moon is Illuminated
Dec 7
Last Quarter
Dec 13
New
Dec 20
First Quarter
Dec 28
Full
Jan 4
Last Quarter

Hourly Weather History & Observations

Time (EST) Temp. Dew Point Humidity Pressure Visibility Wind Dir Wind Speed Gust Speed Precip Events Conditions
12:53 AM 63.0 °F 57.0 °F 81% 30.07 in 10.0 mi East 8.1 mph - N/A   Overcast
1:53 AM 63.0 °F 57.0 °F 81% 30.07 in 10.0 mi ENE 4.6 mph - N/A   Overcast
2:53 AM 62.1 °F 55.9 °F 80% 30.06 in 10.0 mi East 6.9 mph - N/A   Overcast
3:53 AM 62.1 °F 55.9 °F 80% 30.05 in 10.0 mi ENE 5.8 mph - N/A   Overcast
4:53 AM 61.0 °F 55.9 °F 83% 30.05 in 9.0 mi ENE 5.8 mph - N/A   Overcast
5:53 AM 60.1 °F 55.9 °F 86% 30.05 in 9.0 mi ENE 4.6 mph - N/A   Overcast
6:53 AM 60.1 °F 55.9 °F 86% 30.06 in 7.0 mi NE 3.5 mph - N/A   Overcast
7:53 AM 60.1 °F 55.9 °F 86% 30.08 in 2.0 mi NE 4.6 mph - N/A   Overcast
8:00 AM 60.8 °F 55.4 °F 82% 30.06 in 1.8 mi NE 5.8 mph - N/A   Overcast
8:15 AM 60.8 °F 55.4 °F 82% 30.07 in 1.5 mi NE 4.6 mph - N/A   Overcast
8:53 AM 60.1 °F 57.0 °F 90% 30.10 in 1.8 mi NNE 4.6 mph - N/A   Overcast
9:04 AM 60.8 °F 57.2 °F 88% 30.08 in 2.0 mi NNE 4.6 mph - N/A   Overcast
9:20 AM 60.8 °F 57.2 °F 88% 30.08 in 3.0 mi NNE 4.6 mph - N/A   Overcast
9:53 AM 62.1 °F 57.0 °F 84% 30.10 in 9.0 mi NE 5.8 mph - N/A   Overcast
10:53 AM 63.0 °F 57.0 °F 81% 30.09 in 10.0 mi East 6.9 mph - N/A   Overcast
11:53 AM 64.0 °F 55.9 °F 75% 30.07 in 10.0 mi East 5.8 mph - N/A   Overcast
12:53 PM 64.9 °F 57.0 °F 75% 30.05 in 10.0 mi ESE 4.6 mph - N/A   Overcast
1:27 PM 64.4 °F 57.2 °F 77% 30.02 in 10.0 mi Calm Calm - N/A   Overcast
1:53 PM 66.0 °F 57.0 °F 73% 30.03 in 10.0 mi NE 5.8 mph - N/A   Overcast
2:53 PM 66.0 °F 57.0 °F 73% 30.01 in 10.0 mi ENE 4.6 mph - N/A   Overcast
3:47 PM 68.0 °F 57.2 °F 68% 29.98 in 10.0 mi ESE 4.6 mph - N/A   Scattered Clouds
3:53 PM 68.0 °F 57.0 °F 68% 30.01 in 10.0 mi ESE 3.5 mph - N/A   Scattered Clouds
4:53 PM 66.0 °F 57.0 °F 73% 30.01 in 10.0 mi East 4.6 mph - N/A   Scattered Clouds
5:53 PM 62.1 °F 55.9 °F 80% 30.02 in 10.0 mi Calm Calm - N/A   Partly Cloudy
6:53 PM 59.0 °F 54.0 °F 83% 30.03 in 10.0 mi Calm Calm - N/A   Clear
7:44 PM 59.0 °F 53.6 °F 82% 30.01 in 10.0 mi Calm Calm - N/A   Scattered Clouds
8:34 PM 57.2 °F 53.6 °F 88% 30.02 in 9.0 mi SE 3.5 mph - N/A   Mostly Cloudy
8:53 PM 59.0 °F 55.0 °F 87% 30.05 in 9.0 mi Calm Calm - N/A   Overcast
9:25 PM 59.0 °F 55.4 °F 88% 30.03 in 7.0 mi SE 5.8 mph - N/A   Overcast
9:53 PM 59.0 °F 55.9 °F 90% 30.05 in 4.0 mi Calm Calm - N/A   Overcast
10:39 PM 59.0 °F 55.4 °F 88% 30.03 in 2.0 mi SE 4.6 mph - N/A   Overcast
10:53 PM 59.0 °F 55.9 °F 90% 30.06 in 2.0 mi SE 3.5 mph - N/A   Overcast
11:22 PM 59.0 °F 55.4 °F 88% 30.04 in 3.0 mi SE 4.6 mph - N/A   Overcast
11:53 PM 59.0 °F 55.9 °F 90% 30.06 in 6.0 mi SE 3.5 mph - N/A   Overcast